Hourly Weather Allentown

Today, 3 March, Wednesday

Time Temperature Precipitation Wind Pressure Humidity
00:00 -5°C° 0 mm 2 mps 754 mmHg 78%
01:00 -5°C° 0 mm 2 mps 754 mmHg 78%
02:00 -5°C° 0 mm 2 mps 753 mmHg 78%
03:00 -5°C° 0 mm 2 mps 753 mmHg 78%
04:00 -5°C° 0 mm 2 mps 752 mmHg 78%
05:00 -5°C° 0 mm 2 mps 752 mmHg 79%
06:00 -5°C° 0 mm 2 mps 752 mmHg 80%
07:00 -5°C° 0 mm 2 mps 752 mmHg 81%
08:00 -3°C° 0 mm 2 mps 751 mmHg 76%
09:00 -1°C° 0 mm 3 mps 751 mmHg 72%
10:00 +2°C° 0 mm 3 mps 750 mmHg 67%
11:00 +3°C° 0 mm 3 mps 750 mmHg 66%
12:00 +4°C° 0 mm 4 mps 750 mmHg 65%
13:00 +6°C° 0 mm 4 mps 750 mmHg 64%
14:00 +7°C° 0 mm 3 mps 749 mmHg 66%
15:00 +7°C° 0 mm 3 mps 749 mmHg 68%
16:00 +8°C° 0 mm 2 mps 748 mmHg 70%
17:00 +6°C° 0 mm 2 mps 749 mmHg 74%
18:00 +5°C° 0 mm 2 mps 749 mmHg 79%
19:00 +4°C° 0 mm 2 mps 749 mmHg 83%
20:00 +4°C° 0 mm 1 mps 749 mmHg 85%
21:00 +4°C° 0 mm 1 mps 749 mmHg 87%
22:00 +3°C° 0 mm 1 mps 749 mmHg 89%
23:00 +3°C° 0 mm 1 mps 749 mmHg 90%

Tomorrow, 4 March, Thursday

Time Temperature Precipitation Wind Pressure Humidity
00:00 +1°C° 0 mm 2 mps 749 mmHg 91%
01:00 +1°C° 0 mm 2 mps 749 mmHg 91%
02:00 -1°C° 0 mm 2 mps 749 mmHg 91%
03:00 -1°C° 0 mm 2 mps 749 mmHg 91%
04:00 -2°C° 0 mm 2 mps 749 mmHg 90%
05:00 -2°C° 0 mm 3 mps 749 mmHg 90%
06:00 -2°C° 0 mm 3 mps 749 mmHg 89%
07:00 -2°C° 0 mm 3 mps 750 mmHg 89%
08:00 -2°C° 0 mm 4 mps 750 mmHg 82%
09:00 -1°C° 0 mm 5 mps 750 mmHg 74%
10:00 -1°C° 0 mm 6 mps 750 mmHg 67%
11:00 +1°C° 0 mm 6 mps 750 mmHg 65%
12:00 +1°C° 0 mm 6 mps 750 mmHg 63%
13:00 +1°C° 0 mm 6 mps 750 mmHg 60%
14:00 +1°C° 0 mm 6 mps 750 mmHg 60%
15:00 -1°C° 0 mm 6 mps 750 mmHg 60%
16:00 -1°C° 0 mm 6 mps 750 mmHg 60%
17:00 -2°C° 0 mm 5 mps 751 mmHg 63%
18:00 -4°C° 0 mm 5 mps 752 mmHg 66%
19:00 -5°C° 0 mm 4 mps 752 mmHg 70%
20:00 -7°C° 0 mm 4 mps 752 mmHg 68%
21:00 -7°C° 0 mm 4 mps 752 mmHg 66%
22:00 -8°C° 0 mm 4 mps 752 mmHg 64%
23:00 -8°C° 0 mm 4 mps 752 mmHg 62%

Day after tomorrow, 5 March, Friday

Time Temperature Precipitation Wind Pressure Humidity
00:00 -8°C° 0 mm 5 mps 752 mmHg 61%
01:00 -10°C° 0 mm 5 mps 752 mmHg 60%
02:00 -10°C° 0 mm 6 mps 752 mmHg 58%
03:00 -10°C° 0 mm 6 mps 751 mmHg 56%
04:00 -10°C° 0 mm 6 mps 751 mmHg 54%
05:00 -10°C° 0 mm 6 mps 752 mmHg 52%
06:00 -10°C° 0 mm 6 mps 752 mmHg 50%
07:00 -10°C° 0 mm 6 mps 752 mmHg 48%
08:00 -9°C° 0 mm 6 mps 752 mmHg 43%
09:00 -6°C° 0 mm 6 mps 752 mmHg 38%
10:00 -6°C° 0 mm 7 mps 752 mmHg 33%
11:00 -4°C° 0 mm 7 mps 752 mmHg 32%
12:00 -3°C° 0 mm 7 mps 752 mmHg 30%
13:00 -2°C° 0 mm 7 mps 752 mmHg 29%
14:00 -2°C° 0 mm 7 mps 752 mmHg 31%
15:00 -1°C° 0 mm 6 mps 751 mmHg 33%
16:00 -1°C° 0 mm 6 mps 751 mmHg 35%
17:00 -2°C° 0 mm 5 mps 752 mmHg 40%
18:00 -3°C° 0 mm 4 mps 752 mmHg 45%
19:00 -4°C° 0 mm 4 mps 753 mmHg 50%
20:00 -4°C° 0 mm 3 mps 753 mmHg 55%
21:00 -5°C° 0 mm 3 mps 753 mmHg 60%
22:00 -5°C° 0 mm 3 mps 753 mmHg 65%
23:00 -5°C° 0 mm 3 mps 753 mmHg 67%

6 March, Saturday

Time Temperature Precipitation Wind Pressure Humidity
00:00 -5°C° 0 mm 4 mps 753 mmHg 68%
01:00 -5°C° 0 mm 4 mps 753 mmHg 69%
02:00 -5°C° 0 mm 4 mps 753 mmHg 67%
03:00 -6°C° 0 mm 3 mps 753 mmHg 66%
04:00 -6°C° 0 mm 3 mps 753 mmHg 64%
05:00 -6°C° 0 mm 3 mps 753 mmHg 64%
06:00 -6°C° 0 mm 3 mps 753 mmHg 65%
07:00 -6°C° 0 mm 3 mps 754 mmHg 65%
08:00 -5°C° 0 mm 4 mps 754 mmHg 59%
09:00 -4°C° 0 mm 4 mps 755 mmHg 52%
10:00 -4°C° 0 mm 5 mps 755 mmHg 45%
11:00 -2°C° 0 mm 5 mps 755 mmHg 44%
12:00 -1°C° 0 mm 5 mps 755 mmHg 42%
13:00 0°C° 0 mm 5 mps 755 mmHg 40%
14:00 0°C° 0 mm 5 mps 755 mmHg 41%
15:00 0°C° 0 mm 5 mps 754 mmHg 42%
16:00 0°C° 0 mm 5 mps 754 mmHg 43%
17:00 -1°C° 0 mm 4 mps 755 mmHg 49%
18:00 -2°C° 0 mm 3 mps 756 mmHg 56%
19:00 -3°C° 0 mm 2 mps 756 mmHg 62%
20:00 -4°C° 0 mm 2 mps 757 mmHg 64%
21:00 -4°C° 0 mm 2 mps 757 mmHg 66%
22:00 -4°C° 0 mm 2 mps 758 mmHg 68%
23:00 -3°C° 0 mm 1 mps 758 mmHg 67%

7 March, Sunday

Time Temperature Precipitation Wind Pressure Humidity
00:00 -3°C° 0 mm 1 mps 757 mmHg 65%
01:00 -3°C° 0 mm 1 mps 757 mmHg 64%
02:00 -3°C° 0 mm 1 mps 757 mmHg 66%
03:00 -3°C° 0 mm 1 mps 757 mmHg 67%
04:00 -3°C° 0 mm 1 mps 757 mmHg 69%
05:00 -3°C° 0 mm 1 mps 758 mmHg 71%
06:00 -3°C° 0 mm 1 mps 758 mmHg 72%
07:00 -3°C° 0 mm 1 mps 758 mmHg 74%
08:00 -4°C° 0 mm 2 mps 758 mmHg 66%
09:00 -4°C° 0 mm 3 mps 758 mmHg 57%
10:00 -2°C° 0 mm 3 mps 759 mmHg 49%
11:00 -1°C° 0 mm 3 mps 758 mmHg 46%
12:00 -1°C° 0 mm 4 mps 758 mmHg 42%
13:00 0°C° 0 mm 4 mps 758 mmHg 39%
14:00 0°C° 0 mm 4 mps 758 mmHg 40%
15:00 0°C° 0 mm 4 mps 758 mmHg 40%
16:00 0°C° 0 mm 4 mps 757 mmHg 41%
17:00 -2°C° 0 mm 4 mps 758 mmHg 49%
18:00 -2°C° 0 mm 3 mps 759 mmHg 56%
19:00 -3°C° 0 mm 2 mps 759 mmHg 64%
20:00 -5°C° 0 mm 3 mps 760 mmHg 66%
21:00 -5°C° 0 mm 3 mps 760 mmHg 68%
22:00 -6°C° 0 mm 3 mps 761 mmHg 70%
23:00 -6°C° 0 mm 3 mps 761 mmHg 69%

8 March, Monday

Time Temperature Precipitation Wind Pressure Humidity
00:00 -7°C° 0 mm 3 mps 761 mmHg 67%
01:00 -8°C° 0 mm 4 mps 761 mmHg 65%
02:00 -7°C° 0 mm 3 mps 761 mmHg 64%
03:00 -8°C° 0 mm 3 mps 761 mmHg 64%
04:00 -8°C° 0 mm 3 mps 762 mmHg 63%
05:00 -8°C° 0 mm 3 mps 762 mmHg 62%
06:00 -8°C° 0 mm 3 mps 762 mmHg 62%
07:00 -7°C° 0 mm 2 mps 763 mmHg 62%
08:00 -6°C° 0 mm 3 mps 763 mmHg 56%
09:00 -4°C° 0 mm 3 mps 763 mmHg 50%
10:00 -1°C° 0 mm 3 mps 763 mmHg 44%
11:00 0°C° 0 mm 3 mps 763 mmHg 43%
12:00 +2°C° 0 mm 3 mps 762 mmHg 42%
13:00 +3°C° 0 mm 3 mps 762 mmHg 41%
14:00 +4°C° 0 mm 3 mps 762 mmHg 42%
15:00 +4°C° 0 mm 3 mps 762 mmHg 44%
16:00 +4°C° 0 mm 3 mps 762 mmHg 45%
17:00 +4°C° 0 mm 2 mps 762 mmHg 50%
18:00 +3°C° 0 mm 1 mps 762 mmHg 55%
19:00 0°C° 0 mm 0 mps 763 mmHg 60%
20:00 0°C° 0 mm 0 mps 763 mmHg 61%
21:00 +1°C° 0 mm 1 mps 763 mmHg 62%
22:00 +1°C° 0 mm 1 mps 763 mmHg 63%
23:00 +1°C° 0 mm 1 mps 763 mmHg 63%
Show more